Station Historical Data
Daily Summary for October 14, 2017 Units:  English    Metric   Both
« Previous Day
Next Day »
Daily Weekly Monthly Yearly Custom
  High: Low: Average:
Temperature: 69.2 °F 60.7 °F 63.4 °F
Dew Point: 64.1 °F 59.3 °F 61.7 °F
Humidity: 99 % 82 % 94 %
Wind Speed: 3.0 mph 0.0 mph 0.1 mph
Wind Gust: 6.0 mph - -
Wind:- - SE
Pressure: 30.31 in 30.19 in -
Precipitation: 0.01 in    
Historical Graphs
 
 
Tabular Data for October 14, 2017
Time Temperature Dew Point Pressure Wind Wind Speed Wind Gust Humidity Rainfall Rate (Hourly)
00:01 61.3 °F 60.7 °F 30.31 in Calm   3.0 mph 98 % 0.01 in
00:06 61.3 °F 60.7 °F 30.30 in North 1.0 mph 3.0 mph 98 % 0.01 in
00:11 61.3 °F 60.7 °F 30.30 in Calm   3.0 mph 98 % 0.01 in
00:16 61.3 °F 60.7 °F 30.30 in Calm   2.0 mph 98 % 0.01 in
00:21 61.3 °F 60.7 °F 30.30 in Calm   2.0 mph 98 % 0.00 in
00:26 61.3 °F 60.7 °F 30.29 in Calm   2.0 mph 98 % 0.00 in
00:31 61.3 °F 60.7 °F 30.29 in Calm   3.0 mph 98 % 0.00 in
00:36 61.4 °F 60.8 °F 30.29 in Calm   3.0 mph 98 % 0.00 in
00:41 61.4 °F 60.8 °F 30.29 in Calm   3.0 mph 98 % 0.00 in
00:46 61.4 °F 60.8 °F 30.29 in Calm   3.0 mph 98 % 0.00 in
00:51 61.4 °F 60.8 °F 30.29 in Calm   3.0 mph 98 % 0.00 in
00:56 61.4 °F 60.8 °F 30.29 in Calm   3.0 mph 98 % 0.00 in
01:01 61.4 °F 60.8 °F 30.29 in Calm   3.0 mph 98 % 0.00 in
01:06 61.4 °F 60.8 °F 30.29 in Calm   1.0 mph 98 % 0.00 in
01:11 61.4 °F 60.8 °F 30.29 in Calm   1.0 mph 98 % 0.00 in
01:16 61.4 °F 60.8 °F 30.29 in Calm   1.0 mph 98 % 0.00 in
01:21 61.4 °F 60.8 °F 30.29 in Calm   2.0 mph 98 % 0.00 in
01:26 61.4 °F 60.8 °F 30.29 in Calm   2.0 mph 98 % 0.00 in
01:31 61.4 °F 60.8 °F 30.29 in Calm   2.0 mph 98 % 0.00 in
01:36 61.4 °F 60.8 °F 30.29 in Calm   2.0 mph 98 % 0.00 in
01:41 61.4 °F 60.8 °F 30.29 in Calm   1.0 mph 98 % 0.00 in
01:46 61.5 °F 60.9 °F 30.29 in Calm   1.0 mph 98 % 0.00 in
01:51 61.5 °F 60.9 °F 30.29 in Calm   1.0 mph 98 % 0.00 in
01:56 61.5 °F 60.9 °F 30.28 in Calm   1.0 mph 98 % 0.00 in
02:01 61.5 °F 60.9 °F 30.28 in Calm   1.0 mph 98 % 0.00 in
02:06 61.5 °F 60.9 °F 30.28 in North 2.0 mph 2.0 mph 98 % 0.00 in
02:11 61.5 °F 60.9 °F 30.28 in Calm   2.0 mph 98 % 0.00 in
02:16 61.5 °F 60.9 °F 30.28 in North 1.0 mph 2.0 mph 98 % 0.00 in
02:21 61.5 °F 60.9 °F 30.28 in North 1.0 mph 2.0 mph 98 % 0.00 in
02:26 61.5 °F 60.9 °F 30.28 in Calm   2.0 mph 98 % 0.00 in
02:31 61.5 °F 60.9 °F 30.28 in Calm   2.0 mph 98 % 0.00 in
02:36 61.5 °F 60.9 °F 30.28 in Calm   3.0 mph 98 % 0.00 in
02:41 61.5 °F 60.9 °F 30.28 in Calm   3.0 mph 98 % 0.00 in
02:46 61.4 °F 60.8 °F 30.28 in North 1.0 mph 4.0 mph 98 % 0.00 in
02:51 61.4 °F 60.8 °F 30.27 in Calm   4.0 mph 98 % 0.00 in
02:56 61.4 °F 60.8 °F 30.27 in North 1.0 mph 4.0 mph 98 % 0.01 in
03:01 61.4 °F 60.8 °F 30.27 in Calm   4.0 mph 98 % 0.01 in
03:06 61.4 °F 60.8 °F 30.27 in Calm   2.0 mph 98 % 0.01 in
03:11 61.4 °F 60.8 °F 30.27 in Calm   3.0 mph 98 % 0.01 in
03:16 61.3 °F 61.0 °F 30.27 in Calm   3.0 mph 99 % 0.01 in
03:21 61.3 °F 61.0 °F 30.27 in Calm   3.0 mph 99 % 0.01 in
03:27 61.3 °F 61.0 °F 30.27 in Calm   3.0 mph 99 % 0.01 in
03:32 61.2 °F 60.9 °F 30.26 in Calm   3.0 mph 99 % 0.01 in
03:42 61.2 °F 60.9 °F 30.26 in Calm   4.0 mph 99 % 0.01 in
03:47 61.2 °F 60.9 °F 30.26 in North 1.0 mph 4.0 mph 99 % 0.01 in
03:52 61.2 °F 60.9 °F 30.25 in Calm   4.0 mph 99 % 0.01 in
03:57 61.1 °F 60.8 °F 30.26 in Calm   4.0 mph 99 % 0.00 in
04:02 61.1 °F 60.8 °F 30.25 in North 1.0 mph 3.0 mph 99 % 0.00 in
04:07 61.1 °F 60.8 °F 30.26 in Calm   2.0 mph 99 % 0.00 in
04:12 61.1 °F 60.8 °F 30.25 in Calm   2.0 mph 99 % 0.00 in
04:17 61.1 °F 60.8 °F 30.25 in Calm   2.0 mph 99 % 0.00 in
04:19 61.1 °F 60.8 °F 30.25 in Calm   1.0 mph 99 % 0.00 in
04:24 61.1 °F 60.8 °F 30.25 in Calm   2.0 mph 99 % 0.00 in
04:29 61.1 °F 60.8 °F 30.25 in Calm   2.0 mph 99 % 0.00 in
04:34 61.2 °F 60.9 °F 30.25 in Calm   2.0 mph 99 % 0.00 in
04:39 61.2 °F 60.9 °F 30.25 in North 1.0 mph 3.0 mph 99 % 0.00 in
04:44 61.1 °F 60.8 °F 30.25 in Calm   3.0 mph 99 % 0.00 in
04:49 61.1 °F 60.8 °F 30.26 in Calm   3.0 mph 99 % 0.00 in
04:54 61.1 °F 60.8 °F 30.26 in Calm   3.0 mph 99 % 0.00 in
04:59 61.2 °F 60.9 °F 30.26 in Calm   2.0 mph 99 % 0.00 in
05:04 61.1 °F 60.8 °F 30.26 in North 1.0 mph 1.0 mph 99 % 0.00 in
05:09 61.1 °F 60.8 °F 30.26 in Calm   1.0 mph 99 % 0.00 in
05:14 61.1 °F 60.8 °F 30.26 in Calm   1.0 mph 99 % 0.00 in
05:19 61.1 °F 60.8 °F 30.26 in Calm   1.0 mph 99 % 0.00 in
05:24 61.2 °F 60.9 °F 30.26 in Calm   1.0 mph 99 % 0.00 in
05:29 61.2 °F 60.9 °F 30.26 in Calm   2.0 mph 99 % 0.00 in
05:34 61.1 °F 60.8 °F 30.26 in Calm   2.0 mph 99 % 0.00 in
05:39 61.1 °F 60.8 °F 30.26 in Calm   2.0 mph 99 % 0.00 in
05:44 61.0 °F 60.7 °F 30.27 in Calm   2.0 mph 99 % 0.00 in
05:49 61.0 °F 60.7 °F 30.27 in Calm   3.0 mph 99 % 0.00 in
05:54 60.9 °F 60.6 °F 30.27 in Calm   3.0 mph 99 % 0.00 in
05:59 60.9 °F 60.6 °F 30.27 in North 2.0 mph 3.0 mph 99 % 0.00 in
06:04 60.9 °F 60.6 °F 30.27 in Calm   3.0 mph 99 % 0.00 in
06:09 60.9 °F 60.6 °F 30.27 in Calm   2.0 mph 99 % 0.00 in
06:14 60.9 °F 60.6 °F 30.27 in Calm   3.0 mph 99 % 0.00 in
06:19 60.8 °F 60.5 °F 30.27 in Calm   3.0 mph 99 % 0.00 in
06:24 60.8 °F 60.5 °F 30.27 in North 1.0 mph 5.0 mph 99 % 0.00 in
06:29 60.8 °F 60.5 °F 30.27 in North 1.0 mph 5.0 mph 99 % 0.00 in
06:34 60.8 °F 60.5 °F 30.27 in Calm   5.0 mph 99 % 0.00 in
06:39 60.7 °F 60.4 °F 30.27 in Calm   2.0 mph 99 % 0.00 in
06:44 60.7 °F 60.4 °F 30.27 in Calm   2.0 mph 99 % 0.00 in
06:49 60.7 °F 60.4 °F 30.27 in North 2.0 mph 2.0 mph 99 % 0.00 in
06:54 60.8 °F 60.5 °F 30.27 in Calm   2.0 mph 99 % 0.00 in
06:59 60.8 °F 60.5 °F 30.27 in Calm   2.0 mph 99 % 0.00 in
07:04 60.8 °F 60.5 °F 30.27 in Calm   2.0 mph 99 % 0.00 in
07:09 60.8 °F 60.5 °F 30.27 in Calm   1.0 mph 99 % 0.00 in
07:14 60.8 °F 60.5 °F 30.27 in Calm   1.0 mph 99 % 0.00 in
07:19 60.8 °F 60.5 °F 30.27 in Calm   1.0 mph 99 % 0.00 in
07:24 60.8 °F 60.5 °F 30.27 in Calm   1.0 mph 99 % 0.00 in
07:29 60.8 °F 60.5 °F 30.27 in Calm   1.0 mph 99 % 0.00 in
07:34 60.9 °F 60.6 °F 30.27 in Calm   1.0 mph 99 % 0.00 in
07:39 60.9 °F 60.6 °F 30.28 in Calm   1.0 mph 99 % 0.00 in
07:44 61.0 °F 60.7 °F 30.28 in Calm   1.0 mph 99 % 0.00 in
07:49 61.0 °F 60.7 °F 30.28 in Calm   1.0 mph 99 % 0.00 in
07:54 61.1 °F 60.8 °F 30.28 in Calm   1.0 mph 99 % 0.00 in
07:59 61.1 °F 60.8 °F 30.28 in Calm   1.0 mph 99 % 0.00 in
08:04 61.1 °F 60.8 °F 30.28 in Calm   1.0 mph 99 % 0.00 in
08:09 61.2 °F 60.9 °F 30.28 in Calm   1.0 mph 99 % 0.00 in
08:14 61.2 °F 60.9 °F 30.28 in Calm   1.0 mph 99 % 0.00 in
08:19 61.3 °F 61.0 °F 30.28 in Calm   1.0 mph 99 % 0.00 in
08:24 61.4 °F 61.1 °F 30.28 in Calm   3.0 mph 99 % 0.00 in
08:29 61.5 °F 61.2 °F 30.29 in Calm   3.0 mph 99 % 0.00 in
08:34 61.6 °F 61.3 °F 30.29 in Calm   3.0 mph 99 % 0.00 in
08:39 61.7 °F 61.4 °F 30.29 in Calm   3.0 mph 99 % 0.00 in
08:44 61.7 °F 61.4 °F 30.29 in Calm   2.0 mph 99 % 0.00 in
08:49 61.8 °F 61.5 °F 30.29 in Calm   2.0 mph 99 % 0.00 in
08:54 61.8 °F 61.5 °F 30.29 in Calm   2.0 mph 99 % 0.00 in
08:59 61.9 °F 61.6 °F 30.29 in Calm   2.0 mph 99 % 0.00 in
09:04 62.0 °F 61.7 °F 30.29 in North 1.0 mph 2.0 mph 99 % 0.00 in
09:09 62.1 °F 61.8 °F 30.28 in Calm   2.0 mph 99 % 0.00 in
09:15 62.2 °F 61.9 °F 30.28 in Calm   3.0 mph 99 % 0.00 in
09:20 62.3 °F 62.0 °F 30.28 in WNW 1.0 mph 4.0 mph 99 % 0.00 in
09:25 62.5 °F 62.2 °F 30.28 in Calm   4.0 mph 99 % 0.00 in
09:30 62.5 °F 62.2 °F 30.29 in Calm   4.0 mph 99 % 0.00 in
09:35 62.7 °F 62.4 °F 30.29 in WNW 1.0 mph 4.0 mph 99 % 0.00 in
09:40 62.8 °F 62.5 °F 30.29 in Calm   2.0 mph 99 % 0.00 in
09:45 63.0 °F 62.7 °F 30.29 in Calm   3.0 mph 99 % 0.00 in
09:50 63.0 °F 62.7 °F 30.29 in NNE 1.0 mph 3.0 mph 99 % 0.00 in
09:55 63.0 °F 62.7 °F 30.29 in Calm   3.0 mph 99 % 0.00 in
10:00 63.1 °F 62.8 °F 30.29 in Calm   3.0 mph 99 % 0.00 in
10:05 63.2 °F 62.9 °F 30.29 in Calm   3.0 mph 99 % 0.00 in
10:10 63.4 °F 63.1 °F 30.29 in Calm   4.0 mph 99 % 0.00 in
10:15 63.4 °F 63.1 °F 30.29 in Calm   4.0 mph 99 % 0.00 in
10:20 63.6 °F 63.3 °F 30.29 in Calm   4.0 mph 99 % 0.00 in
10:25 63.7 °F 63.4 °F 30.29 in Calm   4.0 mph 99 % 0.00 in
10:30 64.0 °F 63.7 °F 30.29 in WNW 1.0 mph 3.0 mph 99 % 0.00 in
10:35 64.0 °F 63.7 °F 30.29 in Calm   3.0 mph 99 % 0.00 in
10:40 64.1 °F 63.8 °F 30.29 in Calm   3.0 mph 99 % 0.00 in
10:45 64.1 °F 63.8 °F 30.29 in Calm   3.0 mph 99 % 0.00 in
10:50 64.2 °F 63.9 °F 30.29 in Calm   3.0 mph 99 % 0.00 in
10:55 64.2 °F 63.9 °F 30.29 in Calm   3.0 mph 99 % 0.00 in
11:00 64.2 °F 63.6 °F 30.29 in Calm   3.0 mph 98 % 0.00 in
11:05 64.3 °F 63.7 °F 30.28 in Calm   3.0 mph 98 % 0.00 in
11:10 64.4 °F 63.8 °F 30.28 in Calm   3.0 mph 98 % 0.00 in
11:15 64.5 °F 63.9 °F 30.28 in Calm   3.0 mph 98 % 0.00 in
11:20 64.5 °F 63.9 °F 30.28 in Calm   2.0 mph 98 % 0.00 in
11:25 64.4 °F 63.5 °F 30.28 in Calm   2.0 mph 97 % 0.00 in
11:30 64.5 °F 63.6 °F 30.28 in Calm   2.0 mph 97 % 0.00 in
11:35 64.6 °F 63.7 °F 30.28 in Calm   2.0 mph 97 % 0.00 in
11:40 64.7 °F 63.8 °F 30.29 in Calm   2.0 mph 97 % 0.00 in
11:45 64.9 °F 63.7 °F 30.28 in Calm   2.0 mph 96 % 0.00 in
11:50 65.0 °F 63.8 °F 30.28 in Calm   2.0 mph 96 % 0.00 in
11:55 65.2 °F 63.7 °F 30.28 in Calm   3.0 mph 95 % 0.00 in
12:00 65.2 °F 63.4 °F 30.28 in Calm   4.0 mph 94 % 0.00 in
12:05 65.4 °F 63.6 °F 30.28 in Calm   4.0 mph 94 % 0.00 in
12:10 65.6 °F 63.8 °F 30.27 in North 1.0 mph 4.0 mph 94 % 0.00 in
12:15 65.9 °F 64.1 °F 30.28 in North 1.0 mph 4.0 mph 94 % 0.00 in
12:20 66.0 °F 63.9 °F 30.27 in Calm   3.0 mph 93 % 0.00 in
12:25 66.1 °F 63.7 °F 30.27 in Calm   3.0 mph 92 % 0.00 in
12:30 66.3 °F 63.9 °F 30.27 in Calm   2.0 mph 92 % 0.00 in
12:35 66.3 °F 63.6 °F 30.27 in Calm   2.0 mph 91 % 0.00 in
12:40 66.3 °F 63.6 °F 30.27 in Calm   2.0 mph 91 % 0.00 in
12:45 66.3 °F 63.3 °F 30.27 in Calm   2.0 mph 90 % 0.00 in
12:50 66.3 °F 63.3 °F 30.27 in Calm   2.0 mph 90 % 0.00 in
12:55 66.3 °F 63.3 °F 30.26 in SW 1.0 mph 4.0 mph 90 % 0.00 in
13:00 66.3 °F 62.9 °F 30.26 in WSW 1.0 mph 5.0 mph 89 % 0.00 in
13:05 66.4 °F 63.0 °F 30.26 in Calm   5.0 mph 89 % 0.00 in
13:10 66.4 °F 63.0 °F 30.26 in Calm   5.0 mph 89 % 0.00 in
13:15 66.6 °F 63.2 °F 30.25 in Calm   5.0 mph 89 % 0.00 in
13:20 66.7 °F 63.3 °F 30.25 in Calm   4.0 mph 89 % 0.00 in
13:25 66.9 °F 63.5 °F 30.25 in Calm   4.0 mph 89 % 0.00 in
13:29 67.0 °F 63.6 °F 30.25 in Calm   3.0 mph 89 % 0.00 in
13:34 67.0 °F 63.3 °F 30.25 in Calm   5.0 mph 88 % 0.00 in
13:39 67.0 °F 63.3 °F 30.24 in Calm   5.0 mph 88 % 0.00 in
13:44 67.0 °F 63.0 °F 30.24 in WSW 2.0 mph 6.0 mph 87 % 0.00 in
13:49 66.9 °F 62.9 °F 30.24 in Calm   6.0 mph 87 % 0.00 in
13:54 67.0 °F 63.0 °F 30.24 in WSW 3.0 mph 6.0 mph 87 % 0.00 in
13:59 67.0 °F 63.0 °F 30.23 in Calm   6.0 mph 87 % 0.00 in
14:04 67.2 °F 63.2 °F 30.23 in Calm   6.0 mph 87 % 0.00 in
14:09 67.2 °F 63.2 °F 30.23 in Calm   4.0 mph 87 % 0.00 in
14:14 67.3 °F 63.3 °F 30.23 in Calm   4.0 mph 87 % 0.00 in
14:20 67.4 °F 63.4 °F 30.23 in WSW 2.0 mph 4.0 mph 87 % 0.00 in
14:25 67.3 °F 63.3 °F 30.22 in Calm   4.0 mph 87 % 0.00 in
14:30 67.4 °F 63.4 °F 30.22 in Calm   3.0 mph 87 % 0.00 in
14:35 67.4 °F 63.4 °F 30.22 in Calm   4.0 mph 87 % 0.00 in
14:40 67.4 °F 63.4 °F 30.22 in Calm   4.0 mph 87 % 0.00 in
14:45 67.4 °F 63.4 °F 30.22 in WSW 2.0 mph 4.0 mph 87 % 0.00 in
14:50 67.5 °F 63.5 °F 30.22 in Calm   4.0 mph 87 % 0.00 in
14:55 67.5 °F 63.2 °F 30.22 in Calm   4.0 mph 86 % 0.00 in
15:00 67.5 °F 63.2 °F 30.21 in Calm   4.0 mph 86 % 0.00 in
15:05 67.5 °F 63.2 °F 30.21 in WSW 2.0 mph 4.0 mph 86 % 0.00 in
15:10 67.5 °F 63.2 °F 30.21 in Calm   5.0 mph 86 % 0.00 in
15:15 67.4 °F 63.1 °F 30.21 in WSW 1.0 mph 5.0 mph 86 % 0.00 in
15:20 67.4 °F 62.8 °F 30.21 in Calm   5.0 mph 85 % 0.00 in
15:25 67.5 °F 63.2 °F 30.21 in Calm   5.0 mph 86 % 0.00 in
15:30 67.7 °F 63.0 °F 30.20 in Calm   4.0 mph 85 % 0.00 in
15:35 67.8 °F 63.1 °F 30.21 in Calm   2.0 mph 85 % 0.00 in
15:40 67.9 °F 63.2 °F 30.20 in Calm   1.0 mph 85 % 0.00 in
15:45 68.0 °F 63.3 °F 30.21 in Calm   1.0 mph 85 % 0.00 in
15:50 68.1 °F 63.4 °F 30.20 in Calm   1.0 mph 85 % 0.00 in
15:55 68.1 °F 63.1 °F 30.20 in Calm   1.0 mph 84 % 0.00 in
16:00 68.2 °F 63.2 °F 30.20 in Calm   1.0 mph 84 % 0.00 in
16:05 68.3 °F 63.6 °F 30.20 in Calm   1.0 mph 85 % 0.00 in
16:10 68.4 °F 63.1 °F 30.20 in Calm   2.0 mph 83 % 0.00 in
16:15 68.3 °F 63.0 °F 30.20 in Calm   2.0 mph 83 % 0.00 in
16:20 68.2 °F 63.2 °F 30.20 in Calm   2.0 mph 84 % 0.00 in
16:25 68.3 °F 63.3 °F 30.20 in Calm   2.0 mph 84 % 0.00 in
16:30 68.1 °F 62.8 °F 30.20 in Calm   1.0 mph 83 % 0.00 in
16:35 68.1 °F 63.1 °F 30.20 in Calm   1.0 mph 84 % 0.00 in
16:40 68.2 °F 63.5 °F 30.20 in Calm   2.0 mph 85 % 0.00 in
16:45 68.3 °F 63.3 °F 30.19 in Calm   2.0 mph 84 % 0.00 in
16:50 68.4 °F 63.4 °F 30.19 in Calm   2.0 mph 84 % 0.00 in
16:55 68.4 °F 63.4 °F 30.19 in Calm   2.0 mph 84 % 0.00 in
17:00 68.5 °F 63.5 °F 30.20 in Calm   1.0 mph 84 % 0.00 in
17:05 68.7 °F 63.7 °F 30.19 in Calm   2.0 mph 84 % 0.00 in
17:10 69.0 °F 64.0 °F 30.20 in Calm   2.0 mph 84 % 0.00 in
17:15 69.2 °F 63.9 °F 30.20 in Calm   3.0 mph 83 % 0.00 in
17:20 69.1 °F 63.8 °F 30.20 in Calm   3.0 mph 83 % 0.00 in
17:25 69.0 °F 63.7 °F 30.20 in Calm   3.0 mph 83 % 0.00 in
17:30 68.8 °F 63.1 °F 30.20 in Calm   3.0 mph 82 % 0.00 in
17:35 68.7 °F 63.4 °F 30.20 in SW 1.0 mph 3.0 mph 83 % 0.00 in
17:40 68.4 °F 63.1 °F 30.20 in Calm   3.0 mph 83 % 0.00 in
17:45 68.2 °F 63.2 °F 30.20 in Calm   3.0 mph 84 % 0.00 in
17:50 67.9 °F 62.9 °F 30.20 in Calm   3.0 mph 84 % 0.00 in
17:55 67.6 °F 63.0 °F 30.20 in Calm   3.0 mph 85 % 0.00 in
18:00 67.4 °F 62.8 °F 30.20 in Calm   3.0 mph 85 % 0.00 in
18:05 67.2 °F 62.9 °F 30.20 in Calm   2.0 mph 86 % 0.00 in
18:10 67.0 °F 62.7 °F 30.20 in Calm   1.0 mph 86 % 0.00 in
18:15 66.7 °F 62.4 °F 30.20 in Calm   1.0 mph 86 % 0.00 in
18:20 66.4 °F 62.4 °F 30.20 in Calm     87 % 0.00 in
18:25 66.1 °F 62.1 °F 30.21 in Calm     87 % 0.00 in
18:30 65.8 °F 61.8 °F 30.21 in Calm     87 % 0.00 in
18:35 65.5 °F 61.8 °F 30.21 in Calm     88 % 0.00 in
18:40 65.1 °F 61.8 °F 30.21 in Calm     89 % 0.00 in
18:45 64.8 °F 61.5 °F 30.21 in Calm     89 % 0.00 in
18:50 64.5 °F 61.5 °F 30.21 in Calm     90 % 0.00 in
18:51 64.5 °F 61.5 °F 30.21 in Calm     90 % 0.00 in
18:56 64.2 °F 61.2 °F 30.21 in Calm     90 % 0.00 in
19:01 63.9 °F 61.2 °F 30.21 in Calm     91 % 0.00 in
19:06 63.7 °F 61.0 °F 30.21 in Calm     91 % 0.00 in
19:11 63.5 °F 60.8 °F 30.21 in Calm     91 % 0.00 in
19:16 63.3 °F 60.9 °F 30.21 in Calm     92 % 0.00 in
19:21 63.1 °F 60.7 °F 30.21 in Calm     92 % 0.00 in
19:26 62.9 °F 60.5 °F 30.21 in Calm     92 % 0.00 in
19:31 62.7 °F 60.3 °F 30.21 in Calm     92 % 0.00 in
19:36 62.5 °F 60.1 °F 30.21 in Calm     92 % 0.00 in
19:41 62.4 °F 60.3 °F 30.21 in Calm     93 % 0.00 in
19:46 62.1 °F 60.0 °F 30.21 in Calm     93 % 0.00 in
19:51 62.0 °F 59.9 °F 30.21 in Calm     93 % 0.00 in
19:56 61.9 °F 60.1 °F 30.21 in Calm     94 % 0.00 in
20:01 61.8 °F 60.0 °F 30.21 in Calm     94 % 0.00 in
20:06 61.8 °F 60.0 °F 30.21 in Calm     94 % 0.00 in
20:07 61.8 °F 60.0 °F 30.21 in Calm     94 % 0.00 in
20:12 61.7 °F 59.9 °F 30.21 in Calm     94 % 0.00 in
20:17 61.6 °F 59.8 °F 30.21 in Calm     94 % 0.00 in
20:22 61.4 °F 59.9 °F 30.21 in Calm     95 % 0.00 in
20:27 61.4 °F 59.9 °F 30.21 in Calm     95 % 0.00 in
20:32 61.3 °F 59.8 °F 30.21 in Calm     95 % 0.00 in
20:33 61.3 °F 59.8 °F 30.21 in Calm     95 % 0.00 in
20:38 61.2 °F 59.7 °F 30.21 in Calm     95 % 0.00 in
20:43 61.1 °F 59.6 °F 30.21 in Calm     95 % 0.00 in
20:48 60.9 °F 59.4 °F 30.21 in Calm     95 % 0.00 in
20:53 60.8 °F 59.3 °F 30.21 in Calm     95 % 0.00 in
20:58 60.8 °F 59.3 °F 30.21 in Calm     95 % 0.00 in
21:03 60.8 °F 59.3 °F 30.21 in Calm     95 % 0.00 in
21:08 60.8 °F 59.6 °F 30.21 in Calm     96 % 0.00 in
21:13 60.8 °F 59.6 °F 30.21 in Calm     96 % 0.00 in
21:18 60.8 °F 59.6 °F 30.22 in Calm     96 % 0.00 in
21:23 60.8 °F 59.6 °F 30.22 in Calm     96 % 0.00 in
21:28 60.8 °F 59.6 °F 30.22 in Calm     96 % 0.00 in
21:33 60.8 °F 59.6 °F 30.21 in Calm     96 % 0.00 in
21:38 60.9 °F 59.7 °F 30.21 in Calm     96 % 0.00 in
21:43 61.0 °F 60.1 °F 30.21 in Calm     97 % 0.00 in
21:48 61.1 °F 60.2 °F 30.21 in Calm     97 % 0.00 in
21:53 61.2 °F 60.3 °F 30.21 in Calm     97 % 0.00 in
21:58 61.4 °F 60.5 °F 30.21 in Calm     97 % 0.00 in
22:03 61.5 °F 60.6 °F 30.21 in Calm     97 % 0.00 in
22:08 61.6 °F 60.7 °F 30.21 in Calm     97 % 0.00 in
22:13 61.7 °F 60.8 °F 30.21 in Calm     97 % 0.00 in
22:18 61.9 °F 61.0 °F 30.21 in Calm     97 % 0.00 in
22:23 61.9 °F 61.0 °F 30.21 in Calm     97 % 0.00 in
22:28 62.0 °F 61.1 °F 30.21 in Calm     97 % 0.00 in
22:33 62.0 °F 61.1 °F 30.21 in Calm     97 % 0.00 in
22:38 62.1 °F 61.2 °F 30.21 in Calm     97 % 0.00 in
22:43 62.1 °F 61.2 °F 30.21 in Calm     97 % 0.00 in
22:48 62.2 °F 61.3 °F 30.21 in Calm     97 % 0.00 in
22:53 62.2 °F 61.3 °F 30.21 in Calm     97 % 0.00 in
22:58 62.2 °F 61.3 °F 30.21 in Calm     97 % 0.00 in
23:03 62.3 °F 61.4 °F 30.21 in Calm     97 % 0.00 in
23:08 62.4 °F 61.5 °F 30.21 in Calm     97 % 0.00 in
23:13 62.4 °F 61.5 °F 30.20 in Calm     97 % 0.00 in
23:18 62.5 °F 61.6 °F 30.21 in Calm     97 % 0.00 in
23:23 62.6 °F 61.7 °F 30.21 in Calm     97 % 0.00 in
23:28 62.7 °F 61.8 °F 30.21 in Calm     97 % 0.00 in
23:33 62.7 °F 61.8 °F 30.21 in Calm     97 % 0.00 in
23:38 62.7 °F 61.8 °F 30.20 in Calm     97 % 0.00 in
23:43 62.7 °F 61.8 °F 30.20 in Calm     97 % 0.00 in
23:48 62.7 °F 61.8 °F 30.20 in Calm     97 % 0.00 in
23:53 62.7 °F 61.8 °F 30.19 in Calm     97 % 0.00 in
23:58 62.7 °F 61.8 °F 30.19 in Calm     97 % 0.00 in
MarylandWx.com
Compliments of Weather Underground - 6.75 mb